Regional Weather Roundup
Issued by NWS Grand Forks, ND

Home | Current Version | Previous Version | Text Only | Print | Product List | Glossary Off
Versions: 1 2 3 4 5 6 7 8 9 10 11 12 13 14 15 16 17 18 19 20 21 22 23 24 25 26 27 28 29 30 31 32 33 34 35 36 37 38 39 40 41 42 43 44 45 46 47 48 49 50

000
ASUS43 KFGF 061510
RWRFGF
PRAIRIE TO PINES  WEATHER ROUNDUP
NATIONAL WEATHER SERVICE EASTERN NORTH DAKOTA/GRAND FORKS ND
1000 AM CDT MON JUL 06 2015

 **SATELLITE DATA USED TO AUGMENT SKY COVER AT AUTOMATED STATIONS**
 *****  WEATHER ACROSS EASTERN NORTH DAKOTA  *****

CITY           SKY/WX    TMP DP  RH WIND       PRES   REMARKS
GRAND FORKS    PTSUNNY   59  47  64 N20       30.09R
GRAND FRKS AFB PTSUNNY   59  46  62 NE16      30.10R
GRAND FRKS NWS   N/A     59 N/A N/A N10         N/A
DEVILS LAKE    CLOUDY    57  48  72 N6        30.12R
FARGO          MOSUNNY   62  49  62 N17G30    30.05R
WAHPETON ARPT  CLOUDY    61  54  77 N14G20    30.01R
$$

 ***** WEATHER ACROSS CENTRAL AND WESTERN NORTH DAKOTA  *****

CITY           SKY/WX    TMP DP  RH WIND       PRES   REMARKS
BISMARCK       CLOUDY    65  56  72 NW6       30.15R HAZE
MINOT          CLOUDY    59  50  72 N5        30.16R SMOKE
JAMESTOWN      PTSUNNY   61  51  70 N10       30.11R
MINOT AFB      CLOUDY    57  57  99 N7        30.16R
GARRISON         N/A     62  51  67 CALM      30.15S
WILLISTON      PTSUNNY   62  51  67 NE6       30.19S HAZE
DICKINSON      PTSUNNY   61  50  67 N7        30.17S
HETTINGER      MOSUNNY   64  50  60 N6        30.20R
$$

 *****  OTHER AIRPORT OBSERVATIONS IN OUR AREA  *****

CITY           SKY/WX    TMP DP  RH WIND       PRES   REMARKS
WALHALLA       FAIR      55  48  76 MISG      30.13S
GRAFTON AIRPOR CLOUDY    57  48  72 N12G20    30.12R
VALLEY CITY AR FAIR      57  48  72 NE10      30.10R
CANDO          CLOUDY    55  50  82 N9        30.16R
CAVALIER APRT  PTSUNNY   57  46  67 NW12      30.12S
GWINNER        FAIR      63  54  72 N20G25    30.06R
SHEYENNE NWR     N/A     64  53  68 N12       29.95S
ROLLA          CLOUDY    54  50  87 N9        30.17R
 ***** THE ABOVE OBSERVATIONS ARE NON NWS ARE NOT QUALITY
       CONTROLLED AND MAY MIS-REPORT RAIN FOR SNOW...
$$

  *****  WEATHER ACROSS NORTHERN MINNESOTA  *****

CITY           SKY/WX    TMP DP  RH WIND       PRES   REMARKS
FLAG ISLAND    PTSUNNY   54  45  71 NW21      30.04R
WARROAD        PTSUNNY   54  45  71 NW15G23   30.05F
ROSEAU         PTSUNNY   54  46  76 NW12      30.06F
HALLOCK        PTSUNNY   59  50  72 N13       30.09F
THF RVR FALLS  PTSUNNY   57  45  62 N14       30.07R
BAUDETTE       MOSUNNY   57  44  62 N18G30    30.01R
WASKISH        MOSUNNY   59  46  63 N9G17     30.00S
CROOKSTON      CLOUDY    57  48  72 N16       30.08R
STEPHEN NDAWN    N/A     57  48  72 N13         N/A
GREENBUSH NDAW   N/A     57  48  72 N12         N/A
$$
  *****  WEATHER ACROSS CENTRAL AND WEST MINNESOTA  *****

CITY           SKY/WX    TMP DP  RH WIND       PRES   REMARKS
FOSSTON        MOSUNNY   57  48  72 N14G24    30.05R
BEMIDJI        PTSUNNY   59  49  69 N16G24    30.00R
PARK RAPIDS    CLOUDY    61  56  83 N14       29.97R HAZE
ELBOW LAKE     FAIR      64  60  89 N14       29.96S FOG
WADENA           N/A     63  57  82 N12       29.95R HAZE
DETROIT LAKES  MOSUNNY   61  50  67 N15G25    30.02R
MOORHEAD       MOSUNNY   63  52  67 N20       30.04R
FERGUS FALLS   PTSUNNY   63  54  72 N14G23    29.98R HAZE
MORRIS MN      CLOUDY    66  64  94 N12       29.94R FOG
STAPLES        CLOUDY    63  61  94 N9        29.94R FOG
$$
  *****  WEATHER ELSEWHERE ACROSS MINNESOTA  *****

CITY           SKY/WX    TMP DP  RH WIND       PRES   REMARKS
DULUTH         LGT RAIN  62  59  90 N6        29.89R FOG
INTRNTL FALLS  PTSUNNY   60  50  69 N13       29.96S
ELY            CLOUDY    59  55  88 N5        29.91S FOG
CLOQUET        LGT RAIN  61  59  94 N3        29.89R
WHEATON          N/A     61  57  88 NW15G26   30.00R FOG
BRAINERD       LGT RAIN  64  60  87 N14       29.92R FOG
HIBBING        LGT RAIN  61  58  90 N7        29.91S FOG
ALEXANDRIA     CLOUDY    65  61  87 N13G23    29.95R FOG
SAINT CLOUD    CLOUDY    65  60  84 N10G17    29.87R HAZE
MINNEAPOLIS    CLOUDY    72  69  90 NW6       29.80R
$$

  *****  WEATHER ACROSS SOUTH DAKOTA  *****

CITY           SKY/WX    TMP DP  RH WIND       PRES   REMARKS
SIOUX FALLS    CLOUDY    69  67  93 N16G23    29.94R
BROOKINGS      CLOUDY    64  61  88 N14G20    29.99R
WATERTOWN      CLOUDY    64  59  83 N17       29.99R HAZE
HURON          CLOUDY    67  62  84 N15       30.00F HAZE
SISSETON         N/A     63  58  83 N18       29.99R
ABERDEEN       CLOUDY    65  59  81 N14       30.05R HAZE
MITCHELL       CLOUDY    65  58  78 NW13      30.00R HAZE
PIERRE         PTSUNNY   66  61  84 N12       30.09R HAZE
MOBRIDGE       SUNNY     68  60  75 N13       30.10S HAZE
RAPID CITY     CLOUDY    60  53  77 NW14      30.23R
$$

  *****  SOME WEATHER IN NEARBY STATES *****

CITY           SKY/WX    TMP DP  RH WIND       PRES   REMARKS
GLASGOW MT     MOSUNNY   62  51  67 NW7       30.22S
GREAT FALLS MT SUNNY     54  48  80 E6        30.25S
CHEYENNE WY    CLOUDY    56  54  93 NE10      30.29R FOG
SCOTTSBLUFF NE CLOUDY    61  55  81 NE8       30.22R HAZE
OMAHA NE       LGT RAIN  74  71  91 SE6       29.88R
DES MOINES IA  CLOUDY    76  71  85 SE9       29.88S
DAVENPORT IA   CLOUDY    75  70  84 SW9       29.93R
CHICAGO IL     PTSUNNY   78  69  73 S9        29.97F HAZE
EAU CLAIRE WI  CLOUDY    70  68  93 SE6       29.80R
LA CROSSE WI   CLOUDY    75  70  84 S8        29.85R
$$

  *****  SOME NATIONAL WEATHER *****

CITY           SKY/WX    TMP DP  RH WIND       PRES   REMARKS
LA GUARDIA NY  PTSUNNY   82  65  56 S12       30.16R
RALEIGH NC     MOSUNNY   81  72  74 SW12      30.15R
ATLANTA GA     CLOUDY    75  70  83 SW6       30.19S
NEW ORLEANS LA CLOUDY    83  74  74 SE7       30.18S
OKLAHOMA CITY  PTSUNNY   82  73  74 S22G28    29.96S
ALBUQUERQUE NM PTSUNNY   73  59  61 CALM      30.19R
SALT LAKE CITY MOSUNNY   77  57  50 S3        30.11R
LOS ANGELES CA CLOUDY    64  60  87 CALM      30.05R
BOISE ID       MOSUNNY   76  52  43 SE6       30.06R
SEATTLE WA     SUNNY     63  55  75 S8        30.01R
$$

*** WEATHER ACROSS MANITOBA...SASKATCHEWAN AND ONTARIO ***
                ***ONTARIO***

CITY           SKY/WX    TMP DP  RH WIND       PRES   REMARKS
GERALDTON      FOG       61  57  88 W6        29.85R VSB 1
THUNDER BAY    LGT RAIN  63  61  94 SW6       29.87S FOG
SIOUX LOOKOUT  CLOUDY    52  43  71 NW10      29.96S
TORONTO        MOSUNNY   75  61  60 S7        30.09S
BIG TROUT LK   LGT RAIN  48  45  87 NW20G30   29.76
PICKLE LAKE    CLOUDY    50  39  66 NW13G23   29.91R
DRYDEN         PTSUNNY   52  43  71 N7G18     29.98S
KENORA         PTSUNNY   52  43  71 NW12G17   30.03R
$$
                *** MANITOBA***

CITY           SKY/WX    TMP DP  RH WIND       PRES   REMARKS
BRANDON        MOSUNNY   59  48  67 N9        30.16R
DAUPHIN        MOSUNNY   57  45  62 N9G17     30.17S
ISLAND LAKE    PTSUNNY   52  43  71 NW12G23   29.99R
PILOT MOUND      N/A     54  48  82 N8          N/A
THE PAS        NOT AVBL
THOMPSON       MOSUNNY   57  39  51 W10       30.05F
WINNIPEG       MOSUNNY   57  46  67 N12G18    30.12R
LYNN LAKE      SUNNY     64  45  48 W12       30.02F
CHURCHILL      MOSUNNY   50  39  66 N13       29.89S
GILLAM         MOSUNNY   54  43  66 NW18      29.94R
$$
                ***SASKATCHEWAN***

CITY           SKY/WX    TMP DP  RH WIND       PRES   REMARKS
ESTEVAN        PTSUNNY   59  48  67 N8        30.20R
KINDERSLEY     PTSUNNY   57  48  72 CALM      30.22S
LLOYDMINSTER   CLOUDY    54  46  76 W6        30.19S
PRINCE ALBERT    N/A     54  48  82 SW5       30.18F FOG
REGINA         MOSUNNY   61  46  59 E3        30.23R
YORKTON        SUNNY     55  41  58 N5        30.20S
N. BATTLEFORD  CLOUDY    52  48  87 VRB2      30.22F
LA RONGE       NOT AVBL
SASKATOON      PTSUNNY   57  46  67 W3        30.22F
SWIFT CURRENT  SUNNY     57  50  77 W3        30.23S
$$
NOTE: THESE ARE AUTOMATED STATIONS WITH LIMITED QUALITY CONTROL
      "FAIR" INDICATES FEW OR NO CLOUDS BELOW 12,000 FEET WITH NO
      SIGNIFICANT WEATHER AND/OR OBSTRUCTIONS TO VISIBILITY.
      SKY/WX - SKY CONDITION AND SIGNIFICANT WEATHER.
      TMP - AIR TEMPERATURE.    DP   - DEWPOINT TEMPERATURE.
      RH  - RELATIVE HUMIDITY.  PRES - PRESSURE.
      HX  - HEAT INDEX.         WCI  - WIND CHILL INDEX.
$



USA.gov is the U.S. government's official web portal to all federal, state and local government web resources and services.